sat.trackr.live / text

‹ back to catalog

STARLINK-33916

NORAD 63792 · 2025-091T

PAYLOAD ACTIVE UNKNOWN

§ Identity

Operator
Country
US
Launch date
2025-05-02
Launch site
AFETR
Launch vehicle
Mass (kg)
RCS (m²)

Purposes: comms

External: N2YO · Heavens-Above · Gunter

§ Orbital elements

Epoch: 2026-09-20T15:16:54.387840Z

Period
94.27 min
Inclination
43.0002°
Eccentricity
0.0001797
Mean motion
15.27586130 rev/d
Perigee alt
481.8 km
Apogee alt
484.3 km
Semi-major
6,861.2 km
B*
3.6270e-4
RAAN
31.8402°
Arg perigee
275.4611°
Mean anomaly
84.6036°
Rev number
7,871

§ Raw data

STARLINK-339161 63792U 25091T   26263.63674060  .00009734  00000+0  36270-3 0  99982 63792  43.0002  31.8402 0001797 275.4611  84.6036 15.27586130 78714

JSON: /api/v1/satellites/63792 · /tle

For live sub-satellite position, see the globe view (requires WebGL).

§ Visibility from observer

Set your observer location to see the next 7 days of passes ≥ 10°. The values pass through the URL so the page stays shareable.

No JS? Fill the form by hand. The geolocation button needs JavaScript.